Location: Poughquag
(41.6090°N, 73.6820°W)
Time: 03:02:14
(UTC-04:00)

SR - All Passes

Search period start: 15 October 2019 00:00
Search period end: 25 October 2019 00:00
Orbit: 575 x 881 km, 66.7° (Epoch: 14 October)

Date Brightness Start Highest point End Pass type
(mag) Time Alt. Az. Time Alt. Az. Time Alt. Az.
15 Oct - 00:08:49 10° SSW 00:13:41 83° ESE 00:19:03 10° NNE night (unlit)
15 Oct - 01:53:06 10° W 01:56:33 18° NW 02:00:13 10° N visible
15 Oct - 07:08:27 10° N 07:11:47 15° NE 07:15:10 10° ENE daylight
15 Oct - 08:49:08 10° NNW 08:55:01 67° ENE 09:00:53 10° SE daylight
15 Oct - 10:32:23 10° WNW 10:36:37 21° WSW 10:40:48 10° SSW daylight
15 Oct - 23:19:41 10° S 23:24:11 40° ESE 23:29:07 10° NE night (unlit)
16 Oct - 01:02:01 10° WSW 01:06:24 30° NW 01:11:09 10° NNE night (unlit)
16 Oct - 07:59:41 10° NNW 08:05:10 38° NE 08:10:38 10° ESE daylight
16 Oct - 09:41:51 10° NW 09:47:18 39° WSW 09:52:41 10° S daylight
16 Oct - 22:31:28 10° SSE 22:34:55 20° ESE 22:38:36 10° ENE night (unlit)
17 Oct - 00:11:38 10° SW 00:16:28 54° NW 00:21:47 10° NNE night (unlit)
17 Oct - 01:58:04 10° NW 01:59:56 12° NNW 02:01:51 10° NNW visible
17 Oct - 07:10:29 10° N 07:15:07 23° NE 07:19:45 10° E daylight
17 Oct - 08:51:54 10° NW 08:57:49 73° WSW 09:03:39 10° SSE daylight
17 Oct - 10:37:59 10° W 10:38:54 10° W 10:39:50 10° WSW daylight
17 Oct - 23:21:53 10° SSW 23:26:46 78° ESE 23:32:09 10° NNE night (unlit)
18 Oct - 01:05:59 10° W 01:09:36 19° NW 01:13:25 10° N night (unlit)
18 Oct - 06:21:38 10° N 06:24:50 15° NE 06:28:03 10° ENE visible
18 Oct - 08:02:14 10° NNW 08:08:08 63° ENE 08:13:58 10° SE daylight
18 Oct - 09:45:23 10° WNW 09:49:46 22° WSW 09:54:05 10° SSW daylight
18 Oct - 22:32:49 10° S 22:37:18 38° ESE 22:42:11 10° NE night (unlit)
19 Oct - 00:14:59 10° WSW 00:19:28 31° NW 00:24:19 10° NNE night (unlit)
19 Oct - 07:12:49 10° NNW 07:18:15 36° NE 07:23:39 10° ESE daylight
19 Oct - 08:54:55 10° NW 09:00:26 41° WSW 09:05:52 10° S daylight
19 Oct - 21:44:43 10° SSE 21:48:03 19° ESE 21:51:35 10° ENE night (unlit)
19 Oct - 23:24:40 10° SW 23:29:32 57° NW 23:34:55 10° NNE night (unlit)
20 Oct - 01:10:48 10° WNW 01:12:58 12° NNW 01:15:11 10° N night (unlit)
20 Oct - 06:23:37 10° N 06:28:10 22° NE 06:32:43 10° E visible
20 Oct - 08:04:59 10° NNW 08:10:55 77° WSW 08:16:46 10° SSE daylight
20 Oct - 09:50:25 10° W 09:52:04 11° W 09:53:43 10° WSW daylight
20 Oct - 22:34:58 10° SSW 22:39:51 73° ESE 22:45:16 10° NNE night (unlit)
21 Oct - 00:18:53 10° W 00:22:37 20° NW 00:26:37 10° N night (unlit)
21 Oct - 05:34:49 10° N 05:37:52 14° NE 05:40:57 10° ENE visible
21 Oct - 07:15:21 10° NNW 07:21:14 60° ENE 07:27:02 10° SE daylight
21 Oct - 08:58:23 10° WNW 09:02:54 23° WSW 09:07:21 10° SSW daylight
21 Oct - 21:45:58 10° S 21:50:25 36° ESE 21:55:16 10° NE night (unlit)
21 Oct - 23:27:56 10° WSW 23:32:30 33° NW 23:37:28 10° NNE night (unlit)
22 Oct - 06:25:57 10° NNW 06:31:19 35° NE 06:36:40 10° ESE visible
22 Oct - 08:07:59 10° NW 08:13:33 43° WSW 08:19:02 10° S daylight
22 Oct - 20:57:57 10° SE 21:01:10 18° ESE 21:04:35 10° ENE night (unlit)
22 Oct - 22:37:41 10° SW 22:42:36 61° WNW 22:48:02 10° NNE night (unlit)
23 Oct - 00:23:33 10° WNW 00:25:59 13° NW 00:28:28 10° N night (unlit)
23 Oct - 05:36:47 10° N 05:41:13 21° NE 05:45:40 10° E visible
23 Oct - 07:18:05 10° NNW 07:24:02 81° WSW 07:29:53 10° SSE daylight
23 Oct - 09:03:05 10° W 09:05:13 12° W 09:07:20 10° WSW daylight
23 Oct - 21:48:03 10° SSW 21:52:57 69° ESE 21:58:22 10° NE night (unlit)
23 Oct - 23:31:47 10° W 23:35:40 21° NW 23:39:47 10° N night (unlit)
24 Oct - 04:48:01 10° N 04:50:54 14° NE 04:53:48 10° ENE visible
24 Oct - 06:28:28 10° NNW 06:34:19 57° NE 06:40:05 10° SE visible
24 Oct - 08:11:24 10° NW 08:16:02 24° WSW 08:20:36 10° SSW daylight
24 Oct - 20:59:07 10° S 21:03:31 34° ESE 21:08:19 10° NE night (unlit)
24 Oct - 22:40:55 10° WSW 22:45:34 35° NW 22:50:37 10° NNE night (unlit)
